Year,Month,Day,Hour,Minute,Value (Times are PST for temperature in C)
2012,09,24,00,00,10.40
2012,09,24,00,01,10.40
2012,09,24,00,02,10.40
2012,09,24,00,03,10.40
2012,09,24,00,04,10.40
2012,09,24,00,05,10.40
2012,09,24,00,06,10.40
2012,09,24,00,07,10.40
2012,09,24,00,08,10.40
2012,09,24,00,09,10.40
2012,09,24,00,10,10.40
2012,09,24,00,11,10.40
2012,09,24,00,12,10.40
2012,09,24,00,13,10.30
2012,09,24,00,14,10.30
2012,09,24,00,15,10.30
2012,09,24,00,16,10.30
2012,09,24,00,17,10.30
2012,09,24,00,18,10.30
2012,09,24,00,19,10.30
2012,09,24,00,20,10.30
2012,09,24,00,21,10.30
2012,09,24,00,22,10.30
2012,09,24,00,23,10.30
2012,09,24,00,24,10.30
2012,09,24,00,25,10.30
2012,09,24,00,26,10.30
2012,09,24,00,27,10.30
2012,09,24,00,28,10.30
2012,09,24,00,29,10.30
2012,09,24,00,30,10.30
2012,09,24,00,31,10.30
2012,09,24,00,32,10.30
2012,09,24,00,33,10.30
2012,09,24,00,34,10.30
2012,09,24,00,35,10.30
2012,09,24,00,36,10.30
2012,09,24,00,37,10.30
2012,09,24,00,38,10.30
2012,09,24,00,39,10.30
2012,09,24,00,40,10.30
2012,09,24,00,41,10.30
2012,09,24,00,42,10.20
2012,09,24,00,43,10.20
2012,09,24,00,44,10.20
2012,09,24,00,45,10.20
2012,09,24,00,46,10.20
2012,09,24,00,47,10.20
2012,09,24,00,48,10.20
2012,09,24,00,49,10.10
2012,09,24,00,50,10.10
2012,09,24,00,51,10.10
2012,09,24,00,52,10.10
2012,09,24,00,53,10.10
2012,09,24,00,54,10.10
2012,09,24,00,55,10.10
2012,09,24,00,56,10.10
2012,09,24,00,57,10.10
2012,09,24,00,58,10.10
2012,09,24,00,59,10.10
2012,09,24,01,00,10.10
2012,09,24,01,01,10.10
2012,09,24,01,02,10.10
2012,09,24,01,03,10.10
2012,09,24,01,04,10.10
2012,09,24,01,05,10.00
2012,09,24,01,06,10.00
2012,09,24,01,07,10.00
2012,09,24,01,08,10.00
2012,09,24,01,09,10.00
2012,09,24,01,10,10.00
2012,09,24,01,11,10.00
2012,09,24,01,12,9.90
2012,09,24,01,13,9.90
2012,09,24,01,14,9.90
2012,09,24,01,15,9.90
2012,09,24,01,16,9.90
2012,09,24,01,17,9.90
2012,09,24,01,18,9.90
2012,09,24,01,19,9.90
2012,09,24,01,20,9.90
2012,09,24,01,21,9.90
2012,09,24,01,22,9.90
2012,09,24,01,23,9.90
2012,09,24,01,24,9.90
2012,09,24,01,25,9.90
2012,09,24,01,26,9.90
2012,09,24,01,27,9.90
2012,09,24,01,28,9.80
2012,09,24,01,29,9.80
2012,09,24,01,30,9.80
2012,09,24,01,31,9.80
2012,09,24,01,32,9.80
2012,09,24,01,33,9.80
2012,09,24,01,34,9.80
2012,09,24,01,35,9.80
2012,09,24,01,36,9.80
2012,09,24,01,37,9.80
2012,09,24,01,38,9.80
2012,09,24,01,39,9.80
2012,09,24,01,40,9.80
2012,09,24,01,41,9.80
2012,09,24,01,42,9.80
2012,09,24,01,43,9.80
2012,09,24,01,44,9.80
2012,09,24,01,45,9.70
2012,09,24,01,46,9.70
2012,09,24,01,47,9.70
2012,09,24,01,48,9.70
2012,09,24,01,49,9.70
2012,09,24,01,50,9.70
2012,09,24,01,51,9.70
2012,09,24,01,52,9.70
2012,09,24,01,53,9.70
2012,09,24,01,54,9.70
2012,09,24,01,55,9.70
2012,09,24,01,56,9.70
2012,09,24,01,57,9.70
2012,09,24,01,58,9.60
2012,09,24,01,59,9.60
2012,09,24,02,00,9.60
2012,09,24,02,01,9.60
2012,09,24,02,02,9.60
2012,09,24,02,03,9.60
2012,09,24,02,04,9.60
2012,09,24,02,05,9.60
2012,09,24,02,06,9.60
2012,09,24,02,07,9.60
2012,09,24,02,08,9.60
2012,09,24,02,09,9.60
2012,09,24,02,10,9.60
2012,09,24,02,11,9.60
2012,09,24,02,12,9.50
2012,09,24,02,13,9.50
2012,09,24,02,14,9.50
2012,09,24,02,15,9.40
2012,09,24,02,16,9.40
2012,09,24,02,17,9.40
2012,09,24,02,18,9.40
2012,09,24,02,19,9.40
2012,09,24,02,20,9.40
2012,09,24,02,21,9.40
2012,09,24,02,22,9.40
2012,09,24,02,23,9.40
2012,09,24,02,24,9.30
2012,09,24,02,25,9.30
2012,09,24,02,26,9.30
2012,09,24,02,27,9.30
2012,09,24,02,28,9.30
2012,09,24,02,29,9.30
2012,09,24,02,30,9.30
2012,09,24,02,31,9.30
2012,09,24,02,32,9.30
2012,09,24,02,33,9.30
2012,09,24,02,34,9.30
2012,09,24,02,35,9.30
2012,09,24,02,36,9.30
2012,09,24,02,37,9.30
2012,09,24,02,38,9.30
2012,09,24,02,39,9.20
2012,09,24,02,40,9.20
2012,09,24,02,41,9.20
2012,09,24,02,42,9.20
2012,09,24,02,43,9.20
2012,09,24,02,44,9.20
2012,09,24,02,45,9.20
2012,09,24,02,46,9.20
2012,09,24,02,47,9.20
2012,09,24,02,48,9.20
2012,09,24,02,49,9.20
2012,09,24,02,50,9.20
2012,09,24,02,51,9.10
2012,09,24,02,52,9.10
2012,09,24,02,53,9.10
2012,09,24,02,54,9.10
2012,09,24,02,55,9.10
2012,09,24,02,56,9.10
2012,09,24,02,57,9.10
2012,09,24,02,58,9.10
2012,09,24,02,59,9.10
2012,09,24,03,00,9.10
2012,09,24,03,01,9.10
2012,09,24,03,02,9.10
2012,09,24,03,03,9.10
2012,09,24,03,04,9.10
2012,09,24,03,05,9.10
2012,09,24,03,06,9.00
2012,09,24,03,07,9.00
2012,09,24,03,08,9.00
2012,09,24,03,09,8.90
2012,09,24,03,10,8.90
2012,09,24,03,11,8.90
2012,09,24,03,12,8.90
2012,09,24,03,13,8.90
2012,09,24,03,14,8.90
2012,09,24,03,15,8.90
2012,09,24,03,16,8.90
2012,09,24,03,17,8.90
2012,09,24,03,18,8.90
2012,09,24,03,19,8.90
2012,09,24,03,20,8.90
2012,09,24,03,21,8.80
2012,09,24,03,22,8.80
2012,09,24,03,23,8.80
2012,09,24,03,24,8.80
2012,09,24,03,25,8.80
2012,09,24,03,26,8.80
2012,09,24,03,27,8.90
2012,09,24,03,28,8.90
2012,09,24,03,29,8.90
2012,09,24,03,30,8.90
2012,09,24,03,31,8.90
2012,09,24,03,32,8.90
2012,09,24,03,33,8.90
2012,09,24,03,34,8.80
2012,09,24,03,35,8.80
2012,09,24,03,36,8.80
2012,09,24,03,37,8.80
2012,09,24,03,38,8.80
2012,09,24,03,39,8.80
2012,09,24,03,40,8.80
2012,09,24,03,41,8.80
2012,09,24,03,42,8.80
2012,09,24,03,43,8.80
2012,09,24,03,44,8.80
2012,09,24,03,45,8.80
2012,09,24,03,46,8.80
2012,09,24,03,47,8.80
2012,09,24,03,48,8.80
2012,09,24,03,49,8.80
2012,09,24,03,50,8.80
2012,09,24,03,51,8.80
2012,09,24,03,52,8.80
2012,09,24,03,53,8.80
2012,09,24,03,54,8.80
2012,09,24,03,55,8.80
2012,09,24,03,56,8.80
2012,09,24,03,57,8.80
2012,09,24,03,58,8.70
2012,09,24,03,59,8.70
2012,09,24,04,00,8.70
2012,09,24,04,01,8.70
2012,09,24,04,02,8.70
2012,09,24,04,03,8.70
2012,09,24,04,04,8.70
2012,09,24,04,05,8.70
2012,09,24,04,06,8.60
2012,09,24,04,07,8.60
2012,09,24,04,08,8.60
2012,09,24,04,09,8.60
2012,09,24,04,10,8.60
2012,09,24,04,11,8.60
2012,09,24,04,12,8.60
2012,09,24,04,13,8.50
2012,09,24,04,14,8.50
2012,09,24,04,15,8.50
2012,09,24,04,16,8.50
2012,09,24,04,17,8.50
2012,09,24,04,18,8.50
2012,09,24,04,19,8.50
2012,09,24,04,20,8.50
2012,09,24,04,21,8.50
2012,09,24,04,22,8.50
2012,09,24,04,23,8.50
2012,09,24,04,24,8.60
2012,09,24,04,25,8.60
2012,09,24,04,26,8.60
2012,09,24,04,27,8.60
2012,09,24,04,28,8.60
2012,09,24,04,29,8.60
2012,09,24,04,30,8.60
2012,09,24,04,31,8.60
2012,09,24,04,32,8.60
2012,09,24,04,33,8.60
2012,09,24,04,34,8.60
2012,09,24,04,35,8.60
2012,09,24,04,36,8.60
2012,09,24,04,37,8.50
2012,09,24,04,38,8.50
2012,09,24,04,39,8.40
2012,09,24,04,40,8.40
2012,09,24,04,41,8.40
2012,09,24,04,42,8.30
2012,09,24,04,43,8.30
2012,09,24,04,44,8.30
2012,09,24,04,45,8.30
2012,09,24,04,46,8.30
2012,09,24,04,47,8.30
2012,09,24,04,48,8.20
2012,09,24,04,49,8.20
2012,09,24,04,50,8.20
2012,09,24,04,51,8.20
2012,09,24,04,52,8.20
2012,09,24,04,53,8.20
2012,09,24,04,54,8.20
2012,09,24,04,55,8.10
2012,09,24,04,56,8.10
2012,09,24,04,57,8.10
2012,09,24,04,58,8.10
2012,09,24,04,59,8.10
2012,09,24,05,00,8.10
2012,09,24,05,01,8.20
2012,09,24,05,02,8.20
2012,09,24,05,03,8.20
2012,09,24,05,04,8.20
2012,09,24,05,05,8.20
2012,09,24,05,06,8.20
2012,09,24,05,07,8.20
2012,09,24,05,08,8.20
2012,09,24,05,09,8.20
2012,09,24,05,10,8.10
2012,09,24,05,11,8.10
2012,09,24,05,12,8.10
2012,09,24,05,13,8.10
2012,09,24,05,14,8.10
2012,09,24,05,15,8.00
2012,09,24,05,16,8.00
2012,09,24,05,17,8.00
2012,09,24,05,18,8.00
2012,09,24,05,19,8.00
2012,09,24,05,20,8.00
2012,09,24,05,21,8.00
2012,09,24,05,22,8.00
2012,09,24,05,23,8.00
2012,09,24,05,24,8.00
2012,09,24,05,25,8.00
2012,09,24,05,26,8.00
2012,09,24,05,27,8.00
2012,09,24,05,28,8.00
2012,09,24,05,29,8.00
2012,09,24,05,30,8.00
2012,09,24,05,31,8.00
2012,09,24,05,32,8.00
2012,09,24,05,33,8.00
2012,09,24,05,34,8.00
2012,09,24,05,35,8.00
2012,09,24,05,36,7.90
2012,09,24,05,37,7.90
2012,09,24,05,38,7.90
2012,09,24,05,39,7.90
2012,09,24,05,40,7.90
2012,09,24,05,41,7.90
2012,09,24,05,42,7.90
2012,09,24,05,43,7.90
2012,09,24,05,44,7.90
2012,09,24,05,45,7.90
2012,09,24,05,46,7.90
2012,09,24,05,47,7.80
2012,09,24,05,48,7.90
2012,09,24,05,49,7.80
2012,09,24,05,50,7.80
2012,09,24,05,51,7.80
2012,09,24,05,52,7.80
2012,09,24,05,53,7.80
2012,09,24,05,54,7.70
2012,09,24,05,55,7.70
2012,09,24,05,56,7.70
2012,09,24,05,57,7.70
2012,09,24,05,58,7.60
2012,09,24,05,59,7.60
2012,09,24,06,00,7.60
2012,09,24,06,01,7.60
2012,09,24,06,02,7.60
2012,09,24,06,03,7.60
2012,09,24,06,04,7.50
2012,09,24,06,05,7.60
2012,09,24,06,06,7.50
2012,09,24,06,07,7.50
2012,09,24,06,08,7.50
2012,09,24,06,09,7.50
2012,09,24,06,10,7.50
2012,09,24,06,11,7.40
2012,09,24,06,12,7.40
2012,09,24,06,13,7.40
2012,09,24,06,14,7.40
2012,09,24,06,15,7.40
2012,09,24,06,16,7.40
2012,09,24,06,17,7.40
2012,09,24,06,18,7.40
2012,09,24,06,19,7.50
2012,09,24,06,20,7.50
2012,09,24,06,21,7.50
2012,09,24,06,22,7.60
2012,09,24,06,23,7.60
2012,09,24,06,24,7.70
2012,09,24,06,25,7.70
2012,09,24,06,26,7.70
2012,09,24,06,27,7.70
2012,09,24,06,28,7.80
2012,09,24,06,29,7.80
2012,09,24,06,30,7.80
2012,09,24,06,31,7.80
2012,09,24,06,32,7.80
2012,09,24,06,33,7.90
2012,09,24,06,34,7.80
2012,09,24,06,35,7.80
2012,09,24,06,36,7.80
2012,09,24,06,37,7.80
2012,09,24,06,38,7.80
2012,09,24,06,39,7.70
2012,09,24,06,40,7.70
2012,09,24,06,41,7.70
2012,09,24,06,42,7.70
2012,09,24,06,43,7.70
2012,09,24,06,44,7.70
2012,09,24,06,45,7.70
2012,09,24,06,46,7.70
2012,09,24,06,47,7.70
2012,09,24,06,48,7.70
2012,09,24,06,49,7.70
2012,09,24,06,50,7.70
2012,09,24,06,51,7.70
2012,09,24,06,52,7.70
2012,09,24,06,53,7.70
2012,09,24,06,54,7.70
2012,09,24,06,55,7.70
2012,09,24,06,56,7.70
2012,09,24,06,57,7.80
2012,09,24,06,58,7.80
2012,09,24,06,59,7.80
2012,09,24,07,00,7.80
2012,09,24,07,01,7.70
2012,09,24,07,02,7.70
2012,09,24,07,03,7.70
2012,09,24,07,04,7.70
2012,09,24,07,05,7.70
2012,09,24,07,06,7.70
2012,09,24,07,07,7.70
2012,09,24,07,08,7.70
2012,09,24,07,09,7.60
2012,09,24,07,10,7.60
2012,09,24,07,11,7.60
2012,09,24,07,12,7.60
2012,09,24,07,13,7.60
2012,09,24,07,14,7.60
2012,09,24,07,15,7.60
2012,09,24,07,16,7.60
2012,09,24,07,17,7.60
2012,09,24,07,18,7.60
2012,09,24,07,19,7.50
2012,09,24,07,20,7.50
2012,09,24,07,21,7.50
2012,09,24,07,22,7.50
2012,09,24,07,23,7.50
2012,09,24,07,24,7.50
2012,09,24,07,25,7.50
2012,09,24,07,26,7.50
2012,09,24,07,27,7.50
2012,09,24,07,28,7.50
2012,09,24,07,29,7.50
2012,09,24,07,30,7.50
2012,09,24,07,31,7.60
2012,09,24,07,32,7.60
2012,09,24,07,33,7.60
2012,09,24,07,34,7.60
2012,09,24,07,35,7.60
2012,09,24,07,36,7.60
2012,09,24,07,37,7.60
2012,09,24,07,38,7.60
2012,09,24,07,39,7.60
2012,09,24,07,40,7.70
2012,09,24,07,41,7.70
2012,09,24,07,42,7.70
2012,09,24,07,43,7.70
2012,09,24,07,44,7.80
2012,09,24,07,45,7.80
2012,09,24,07,46,7.80
2012,09,24,07,47,7.90
2012,09,24,07,48,7.90
2012,09,24,07,49,7.90
2012,09,24,07,50,7.90
2012,09,24,07,51,7.90
2012,09,24,07,52,8.00
2012,09,24,07,53,8.00
2012,09,24,07,54,8.10
2012,09,24,07,55,8.10
2012,09,24,07,56,8.10
2012,09,24,07,57,8.20
2012,09,24,07,58,8.20
2012,09,24,07,59,8.20
2012,09,24,08,00,8.20
2012,09,24,08,01,8.20
2012,09,24,08,02,8.20
2012,09,24,08,03,8.20
2012,09,24,08,04,8.30
2012,09,24,08,05,8.30
2012,09,24,08,06,8.30
2012,09,24,08,07,8.40
2012,09,24,08,08,8.40
2012,09,24,08,09,8.50
2012,09,24,08,10,8.60
2012,09,24,08,11,8.60
2012,09,24,08,12,8.70
2012,09,24,08,13,8.80
2012,09,24,08,14,8.80
2012,09,24,08,15,8.90
2012,09,24,08,16,9.00
2012,09,24,08,17,9.00
2012,09,24,08,18,9.10
2012,09,24,08,19,9.20
2012,09,24,08,20,9.20
2012,09,24,08,21,9.20
2012,09,24,08,22,9.20
2012,09,24,08,23,9.30
2012,09,24,08,24,9.30
2012,09,24,08,25,9.30
2012,09,24,08,26,9.30
2012,09,24,08,27,9.30
2012,09,24,08,28,9.30
2012,09,24,08,29,9.40
2012,09,24,08,30,9.40
2012,09,24,08,31,9.40
2012,09,24,08,32,9.50
2012,09,24,08,33,9.50
2012,09,24,08,34,9.60
2012,09,24,08,35,9.60
2012,09,24,08,36,9.70
2012,09,24,08,37,9.70
2012,09,24,08,38,9.70
2012,09,24,08,39,9.80
2012,09,24,08,40,9.80
2012,09,24,08,41,9.80
2012,09,24,08,42,9.90
2012,09,24,08,43,9.90
2012,09,24,08,44,10.00
2012,09,24,08,45,10.10
2012,09,24,08,46,10.10
2012,09,24,08,47,10.20
2012,09,24,08,48,10.30
2012,09,24,08,49,10.30
2012,09,24,08,50,10.40
2012,09,24,08,51,10.50
2012,09,24,08,52,10.60
2012,09,24,08,53,10.70
2012,09,24,08,54,10.80
2012,09,24,08,55,10.90
2012,09,24,08,56,11.00
2012,09,24,08,57,11.10
2012,09,24,08,58,11.20
2012,09,24,08,59,11.20
2012,09,24,09,00,11.40
2012,09,24,09,01,11.50
2012,09,24,09,02,11.60
2012,09,24,09,03,11.80
2012,09,24,09,04,11.90
2012,09,24,09,05,12.00
2012,09,24,09,06,12.10
2012,09,24,09,07,12.30
2012,09,24,09,08,12.40
2012,09,24,09,09,12.50
2012,09,24,09,10,12.60
2012,09,24,09,11,12.70
2012,09,24,09,12,12.90
2012,09,24,09,13,13.00
2012,09,24,09,14,13.10
2012,09,24,09,15,13.20
2012,09,24,09,16,13.30
2012,09,24,09,17,13.30
2012,09,24,09,18,13.40
2012,09,24,09,19,13.40
2012,09,24,09,20,13.50
2012,09,24,09,21,13.60
2012,09,24,09,22,13.70
2012,09,24,09,23,13.80
2012,09,24,09,24,13.80
2012,09,24,09,25,13.90
2012,09,24,09,26,14.00
2012,09,24,09,27,14.10
2012,09,24,09,28,14.20
2012,09,24,09,29,14.30
2012,09,24,09,30,14.30
2012,09,24,09,31,14.40
2012,09,24,09,32,14.50
2012,09,24,09,33,14.50
2012,09,24,09,34,14.60
2012,09,24,09,35,14.60
2012,09,24,09,36,14.70
2012,09,24,09,37,14.70
2012,09,24,09,38,14.80
2012,09,24,09,39,14.90
2012,09,24,09,40,14.90
2012,09,24,09,41,15.00
2012,09,24,09,42,15.10
2012,09,24,09,43,15.20
2012,09,24,09,44,15.30
2012,09,24,09,45,15.30
2012,09,24,09,46,15.40
2012,09,24,09,47,15.50
2012,09,24,09,48,15.50
2012,09,24,09,49,15.60
2012,09,24,09,50,15.60
2012,09,24,09,51,15.70
2012,09,24,09,52,15.70
2012,09,24,09,53,15.80
2012,09,24,09,54,15.80
2012,09,24,09,55,15.80
2012,09,24,09,56,15.80
2012,09,24,09,57,15.80
2012,09,24,09,58,15.80
2012,09,24,09,59,15.80
2012,09,24,10,00,15.80
2012,09,24,10,01,15.80
2012,09,24,10,02,15.80
2012,09,24,10,03,15.80
2012,09,24,10,04,15.80
2012,09,24,10,05,15.80
2012,09,24,10,06,15.80
2012,09,24,10,07,15.80
2012,09,24,10,08,15.80
2012,09,24,10,09,15.80
2012,09,24,10,10,15.80
2012,09,24,10,11,15.80
2012,09,24,10,12,15.80
2012,09,24,10,13,15.90
2012,09,24,10,14,15.90
2012,09,24,10,15,16.00
2012,09,24,10,16,16.00
2012,09,24,10,17,16.10
2012,09,24,10,18,16.10
2012,09,24,10,19,16.20
2012,09,24,10,20,16.20
2012,09,24,10,21,16.20
2012,09,24,10,22,16.20
2012,09,24,10,23,16.30
2012,09,24,10,24,16.40
2012,09,24,10,25,16.40
2012,09,24,10,26,16.50
2012,09,24,10,27,16.60
2012,09,24,10,28,16.70
2012,09,24,10,29,16.70
2012,09,24,10,30,16.80
2012,09,24,10,31,16.80
2012,09,24,10,32,16.90
2012,09,24,10,33,16.90
2012,09,24,10,34,17.00
2012,09,24,10,35,17.00
2012,09,24,10,36,17.00
2012,09,24,10,37,17.00
2012,09,24,10,38,16.90
2012,09,24,10,39,16.90
2012,09,24,10,40,16.90
2012,09,24,10,41,16.80
2012,09,24,10,42,16.80
2012,09,24,10,43,16.80
2012,09,24,10,44,16.70
2012,09,24,10,45,16.70
2012,09,24,10,46,16.70
2012,09,24,10,47,16.70
2012,09,24,10,48,16.60
2012,09,24,10,49,16.60
2012,09,24,10,50,16.60
2012,09,24,10,51,16.50
2012,09,24,10,52,16.50
2012,09,24,10,53,16.40
2012,09,24,10,54,16.40
2012,09,24,10,55,16.40
2012,09,24,10,56,16.40
2012,09,24,10,57,16.40
2012,09,24,10,58,16.40
2012,09,24,10,59,16.40
2012,09,24,11,00,16.50
2012,09,24,11,01,16.50
2012,09,24,11,02,16.50
2012,09,24,11,03,16.40
2012,09,24,11,04,16.40
2012,09,24,11,05,16.30
2012,09,24,11,06,16.30
2012,09,24,11,07,16.20
2012,09,24,11,08,16.20
2012,09,24,11,09,16.20
2012,09,24,11,10,16.30
2012,09,24,11,11,16.30
2012,09,24,11,12,16.40
2012,09,24,11,13,16.50
2012,09,24,11,14,16.60
2012,09,24,11,15,16.70
2012,09,24,11,16,16.70
2012,09,24,11,17,16.70
2012,09,24,11,18,16.80
2012,09,24,11,19,16.80
2012,09,24,11,20,16.90
2012,09,24,11,21,17.00
2012,09,24,11,22,17.00
2012,09,24,11,23,16.90
2012,09,24,11,24,16.90
2012,09,24,11,25,16.90
2012,09,24,11,26,16.90
2012,09,24,11,27,16.90
2012,09,24,11,28,16.90
2012,09,24,11,29,16.80
2012,09,24,11,30,16.80
2012,09,24,11,31,16.80
2012,09,24,11,32,16.80
2012,09,24,11,33,16.90
2012,09,24,11,34,16.90
2012,09,24,11,35,16.90
2012,09,24,11,36,16.90
2012,09,24,11,37,17.00
2012,09,24,11,38,17.00
2012,09,24,11,39,17.00
2012,09,24,11,40,16.90
2012,09,24,11,41,16.90
2012,09,24,11,42,16.80
2012,09,24,11,43,16.80
2012,09,24,11,44,16.80
2012,09,24,11,45,16.80
2012,09,24,11,46,16.80
2012,09,24,11,47,16.80
2012,09,24,11,48,16.80
2012,09,24,11,49,16.80
2012,09,24,11,50,16.80
2012,09,24,11,51,16.80
2012,09,24,11,52,16.80
2012,09,24,11,53,16.80
2012,09,24,11,54,16.80
2012,09,24,11,55,16.80
2012,09,24,11,56,16.80
2012,09,24,11,57,16.80
2012,09,24,11,58,16.80
2012,09,24,11,59,16.80
2012,09,24,12,00,16.80
2012,09,24,12,01,16.80
2012,09,24,12,02,16.90
2012,09,24,12,03,16.90
2012,09,24,12,04,17.00
2012,09,24,12,05,17.00
2012,09,24,12,06,17.10
2012,09,24,12,07,17.10
2012,09,24,12,08,17.10
2012,09,24,12,09,17.10
2012,09,24,12,10,17.10
2012,09,24,12,11,17.10
2012,09,24,12,12,17.10
2012,09,24,12,13,17.10
2012,09,24,12,14,17.20
2012,09,24,12,15,17.20
2012,09,24,12,16,17.30
2012,09,24,12,17,17.30
2012,09,24,12,18,17.30
2012,09,24,12,19,17.30
2012,09,24,12,20,17.30
2012,09,24,12,21,17.40
2012,09,24,12,22,17.40
2012,09,24,12,23,17.50
2012,09,24,12,24,17.50
2012,09,24,12,25,17.60
2012,09,24,12,26,17.60
2012,09,24,12,27,17.60
2012,09,24,12,28,17.60
2012,09,24,12,29,17.60
2012,09,24,12,30,17.50
2012,09,24,12,31,17.50
2012,09,24,12,32,17.40
2012,09,24,12,33,17.40
2012,09,24,12,34,17.30
2012,09,24,12,35,17.30
2012,09,24,12,36,17.20
2012,09,24,12,37,17.20
2012,09,24,12,38,17.10
2012,09,24,12,39,17.10
2012,09,24,12,40,17.10
2012,09,24,12,41,17.10
2012,09,24,12,42,17.10
2012,09,24,12,43,17.00
2012,09,24,12,44,17.00
2012,09,24,12,45,17.00
2012,09,24,12,46,17.10
2012,09,24,12,47,17.10
2012,09,24,12,48,17.00
2012,09,24,12,49,17.00
2012,09,24,12,50,17.00
2012,09,24,12,51,17.00
2012,09,24,12,52,16.90
2012,09,24,12,53,16.90
2012,09,24,12,54,16.90
2012,09,24,12,55,16.90
2012,09,24,12,56,16.90
2012,09,24,12,57,16.80
2012,09,24,12,58,16.80
2012,09,24,12,59,16.80
2012,09,24,13,00,16.80
2012,09,24,13,01,16.80
2012,09,24,13,02,16.80
2012,09,24,13,03,16.80
2012,09,24,13,04,16.80
2012,09,24,13,05,16.80
2012,09,24,13,06,16.80
2012,09,24,13,07,16.80
2012,09,24,13,08,16.90
2012,09,24,13,09,16.90
2012,09,24,13,10,16.90
2012,09,24,13,11,17.00
2012,09,24,13,12,17.00
2012,09,24,13,13,17.00
2012,09,24,13,14,17.00
2012,09,24,13,15,17.00
2012,09,24,13,16,17.00
2012,09,24,13,17,17.10
2012,09,24,13,18,17.10
2012,09,24,13,19,17.10
2012,09,24,13,20,17.10
2012,09,24,13,21,17.10
2012,09,24,13,22,17.10
2012,09,24,13,23,17.10
2012,09,24,13,24,17.10
2012,09,24,13,25,17.20
2012,09,24,13,26,17.20
2012,09,24,13,27,17.20
2012,09,24,13,28,17.20
2012,09,24,13,29,17.20
2012,09,24,13,30,17.30
2012,09,24,13,31,17.40
2012,09,24,13,32,17.50
2012,09,24,13,33,17.60
2012,09,24,13,34,17.70
2012,09,24,13,35,17.70
2012,09,24,13,36,17.80
2012,09,24,13,37,17.80
2012,09,24,13,38,17.90
2012,09,24,13,39,18.00
2012,09,24,13,40,18.10
2012,09,24,13,41,18.10
2012,09,24,13,42,18.10
2012,09,24,13,43,18.10
2012,09,24,13,44,18.10
2012,09,24,13,45,18.20
2012,09,24,13,46,18.20
2012,09,24,13,47,18.30
2012,09,24,13,48,18.30
2012,09,24,13,49,18.40
2012,09,24,13,50,18.50
2012,09,24,13,51,18.50
2012,09,24,13,52,18.60
2012,09,24,13,53,18.60
2012,09,24,13,54,18.60
2012,09,24,13,55,18.70
2012,09,24,13,56,18.80
2012,09,24,13,57,18.90
2012,09,24,13,58,19.00
2012,09,24,13,59,19.10
2012,09,24,14,00,19.10
2012,09,24,14,01,19.20
2012,09,24,14,02,19.10
2012,09,24,14,03,19.00
2012,09,24,14,04,19.00
2012,09,24,14,05,18.90
2012,09,24,14,06,18.90
2012,09,24,14,07,18.80
2012,09,24,14,08,18.80
2012,09,24,14,09,18.80
2012,09,24,14,10,18.80
2012,09,24,14,11,18.70
2012,09,24,14,12,18.70
2012,09,24,14,13,18.70
2012,09,24,14,14,18.70
2012,09,24,14,15,18.70
2012,09,24,14,16,18.70
2012,09,24,14,17,18.70
2012,09,24,14,18,18.60
2012,09,24,14,19,18.60
2012,09,24,14,20,18.50
2012,09,24,14,21,18.50
2012,09,24,14,22,18.50
2012,09,24,14,23,18.60
2012,09,24,14,24,18.60
2012,09,24,14,25,18.70
2012,09,24,14,26,18.90
2012,09,24,14,27,19.00
2012,09,24,14,28,19.10
2012,09,24,14,29,19.20
2012,09,24,14,30,19.20
2012,09,24,14,31,19.20
2012,09,24,14,32,19.20
2012,09,24,14,33,19.10
2012,09,24,14,34,19.10
2012,09,24,14,35,19.10
2012,09,24,14,36,19.10
2012,09,24,14,37,19.10
2012,09,24,14,38,19.20
2012,09,24,14,39,19.20
2012,09,24,14,40,19.30
2012,09,24,14,41,19.20
2012,09,24,14,42,19.20
2012,09,24,14,43,19.20
2012,09,24,14,44,19.30
2012,09,24,14,45,19.30
2012,09,24,14,46,19.30
2012,09,24,14,47,19.30
2012,09,24,14,48,19.30
2012,09,24,14,49,19.30
2012,09,24,14,50,19.30
2012,09,24,14,51,19.30
2012,09,24,14,52,19.30
2012,09,24,14,53,19.30
2012,09,24,14,54,19.30
2012,09,24,14,55,19.30
2012,09,24,14,56,19.30
2012,09,24,14,57,19.20
2012,09,24,14,58,19.20
2012,09,24,14,59,19.10
2012,09,24,15,00,19.10
2012,09,24,15,01,19.10
2012,09,24,15,02,19.00
2012,09,24,15,03,19.00
2012,09,24,15,04,19.00
2012,09,24,15,05,19.00
2012,09,24,15,06,18.90
2012,09,24,15,07,18.90
2012,09,24,15,08,18.90
2012,09,24,15,09,18.80
2012,09,24,15,10,18.80
2012,09,24,15,11,18.80
2012,09,24,15,12,18.80
2012,09,24,15,13,18.80
2012,09,24,15,14,18.70
2012,09,24,15,15,18.70
2012,09,24,15,16,18.70
2012,09,24,15,17,18.70
2012,09,24,15,18,18.70
2012,09,24,15,19,18.60
2012,09,24,15,20,18.60
2012,09,24,15,21,18.60
2012,09,24,15,22,18.60
2012,09,24,15,23,18.60
2012,09,24,15,24,18.60
2012,09,24,15,25,18.50
2012,09,24,15,26,18.50
2012,09,24,15,27,18.50
2012,09,24,15,28,18.50
2012,09,24,15,29,18.50
2012,09,24,15,30,18.50
2012,09,24,15,31,18.50
2012,09,24,15,32,18.50
2012,09,24,15,33,18.50
2012,09,24,15,34,18.50
2012,09,24,15,35,18.50
2012,09,24,15,36,18.50
2012,09,24,15,37,18.50
2012,09,24,15,38,18.40
2012,09,24,15,39,18.50
2012,09,24,15,40,18.50
2012,09,24,15,41,18.60
2012,09,24,15,42,18.60
2012,09,24,15,43,18.70
2012,09,24,15,44,18.70
2012,09,24,15,45,18.70
2012,09,24,15,46,18.70
2012,09,24,15,47,18.70
2012,09,24,15,48,18.70
2012,09,24,15,49,18.60
2012,09,24,15,50,18.60
2012,09,24,15,51,18.70
2012,09,24,15,52,18.70
2012,09,24,15,53,18.70
2012,09,24,15,54,18.70
2012,09,24,15,55,18.70
2012,09,24,15,56,18.70
2012,09,24,15,57,18.70
2012,09,24,15,58,18.70
2012,09,24,15,59,18.70
2012,09,24,16,00,18.80
2012,09,24,16,01,18.80
2012,09,24,16,02,18.80
2012,09,24,16,03,18.80
2012,09,24,16,04,18.80
2012,09,24,16,05,18.80
2012,09,24,16,06,18.80
2012,09,24,16,07,18.70
2012,09,24,16,08,18.70
2012,09,24,16,09,18.70
2012,09,24,16,10,18.70
2012,09,24,16,11,18.70
2012,09,24,16,12,18.70
2012,09,24,16,13,18.70
2012,09,24,16,14,18.70
2012,09,24,16,15,18.70
2012,09,24,16,16,18.70
2012,09,24,16,17,18.70
2012,09,24,16,18,18.70
2012,09,24,16,19,18.80
2012,09,24,16,20,18.80
2012,09,24,16,21,18.80
2012,09,24,16,22,18.80
2012,09,24,16,23,18.80
2012,09,24,16,24,18.80
2012,09,24,16,25,18.80
2012,09,24,16,26,18.80
2012,09,24,16,27,18.80
2012,09,24,16,28,18.80
2012,09,24,16,29,18.90
2012,09,24,16,30,18.90
2012,09,24,16,31,18.80
2012,09,24,16,32,18.80
2012,09,24,16,33,18.80
2012,09,24,16,34,18.70
2012,09,24,16,35,18.70
2012,09,24,16,36,18.60
2012,09,24,16,37,18.60
2012,09,24,16,38,18.60
2012,09,24,16,39,18.50
2012,09,24,16,40,18.50
2012,09,24,16,41,18.50
2012,09,24,16,42,18.40
2012,09,24,16,43,18.40
2012,09,24,16,44,18.40
2012,09,24,16,45,18.30
2012,09,24,16,46,18.30
2012,09,24,16,47,18.30
2012,09,24,16,48,18.30
2012,09,24,16,49,18.30
2012,09,24,16,50,18.30
2012,09,24,16,51,18.40
2012,09,24,16,52,18.30
2012,09,24,16,53,18.40
2012,09,24,16,54,18.40
2012,09,24,16,55,18.40
2012,09,24,16,56,18.40
2012,09,24,16,57,18.40
2012,09,24,16,58,18.40
2012,09,24,16,59,18.40
2012,09,24,17,00,18.40
2012,09,24,17,01,18.40
2012,09,24,17,02,18.50
2012,09,24,17,03,18.50
2012,09,24,17,04,18.50
2012,09,24,17,05,18.60
2012,09,24,17,06,18.60
2012,09,24,17,07,18.60
2012,09,24,17,08,18.60
2012,09,24,17,09,18.60
2012,09,24,17,10,18.60
2012,09,24,17,11,18.60
2012,09,24,17,12,18.60
2012,09,24,17,13,18.60
2012,09,24,17,14,18.60
2012,09,24,17,15,18.60
2012,09,24,17,16,18.60
2012,09,24,17,17,18.60
2012,09,24,17,18,18.60
2012,09,24,17,19,18.60
2012,09,24,17,20,18.60
2012,09,24,17,21,18.60
2012,09,24,17,22,18.60
2012,09,24,17,23,18.60
2012,09,24,17,24,18.60
2012,09,24,17,25,18.60
2012,09,24,17,26,18.60
2012,09,24,17,27,18.60
2012,09,24,17,28,18.60
2012,09,24,17,29,18.60
2012,09,24,17,30,18.60
2012,09,24,17,31,18.60
2012,09,24,17,32,18.60
2012,09,24,17,33,18.60
2012,09,24,17,34,18.50
2012,09,24,17,35,18.50
2012,09,24,17,36,18.40
2012,09,24,17,37,18.40
2012,09,24,17,38,18.40
2012,09,24,17,39,18.30